Change the Weather History Date:

Sunday, November 4, 2012

  Actual Average Record
Temperature  
Mean Temperature 51 °F 43 °F  
Max Temperature 65 °F 56 °F 76 °F (2007)
Min Temperature 37 °F 30 °F 8 °F (1967)
Degree Days  
Heating Degree Days 14    
Month to date heating degree days 57  
Cooling Degree Days 0    
Month to date cooling degree days 0  
Moisture  
Dew Point 29 °F    
Average Humidity 52    
Maximum Humidity 82    
Minimum Humidity 21    
Precipitation  
Precipitation 0.00 in 0.02 in 0.26 in (1953)
Month to date precipitation 0.00 0.08  
Year to date precipitation 7.72 15.84  
Sea Level Pressure  
Sea Level Pressure 30.15 in    
Wind  
Wind Speed 13 mph (WNW)    
Max Wind Speed 26 mph    
Max Gust Speed 33 mph    
Visibility 10 miles    
Events      
T = Trace of Precipitation, MM = Missing Value Source: NWS Daily Summary

Daily Weather History Graph

Daily Weather History Graph

Search for Another Location

Airport or City:

Trip Planner

Search our weather history database for the weather conditions in past years. The results will help you decide how hot, cold, wet, or windy it might be!

Date:

Astronomy

Nov. 04, 2012 Rise Set
Actual Time 6:26 AM MST 4:46 PM MST
Civil Twilight 5:57 AM MST 5:14 PM MST
Nautical Twilight 5:25 AM MST 5:46 PM MST
Astronomical Twilight 4:53 AM MST 6:18 PM MST
Moon 9:26 PM MST (11/4) 11:11 AM MST (11/4)
Length of Visible Light 11h 16m
Length of Day
10h 19m
Waning Gibbous, 71% of the Moon is Illuminated
Nov 4
Waning Gibbous
Nov 6
Last Quarter
Nov 13
New
Nov 20
First Quarter
Nov 28
Full

Hourly Weather History & Observations

Time (MST) Temp. Windchill Dew Point Humidity Pressure Visibility Wind Dir Wind Speed Gust Speed Precip Events Conditions
12:53 AM 39.0 °F 31.8 °F 30.9 °F 73% 30.10 in 10.0 mi WSW 11.5 mph - N/A   Clear
1:53 AM 39.0 °F 34.0 °F 30.9 °F 73% 30.10 in 10.0 mi WSW 6.9 mph - N/A   Clear
1:53 AM 37.9 °F 31.5 °F 32.0 °F 79% 30.11 in 10.0 mi West 9.2 mph - N/A   Clear
2:53 AM 37.9 °F 30.5 °F 30.9 °F 76% 30.10 in 10.0 mi West 11.5 mph - N/A   Clear
3:53 AM 37.9 °F 29.6 °F 32.0 °F 79% 30.11 in 10.0 mi West 13.8 mph - N/A   Clear
5:53 AM 37.9 °F 28.9 °F 30.9 °F 76% 30.13 in 10.0 mi West 16.1 mph - N/A   Clear
6:53 AM 37.9 °F 30.5 °F 30.9 °F 76% 30.17 in 10.0 mi West 11.5 mph - N/A   Clear
7:53 AM 39.9 °F 32.5 °F 32.0 °F 73% 30.17 in 10.0 mi West 12.7 mph - N/A   Clear
8:53 AM 45.0 °F 38.9 °F 33.1 °F 63% 30.17 in 10.0 mi West 12.7 mph - N/A   Clear
9:53 AM 48.0 °F - 33.1 °F 56% 30.15 in 10.0 mi West 13.8 mph - N/A   Clear
10:53 AM 57.0 °F - 28.9 °F 34% 30.12 in 10.0 mi West 13.8 mph - N/A   Clear
11:53 AM 63.0 °F - 26.1 °F 25% 30.09 in 10.0 mi NW 17.3 mph 25.3 mph N/A   Clear
12:53 PM 62.1 °F - 23.0 °F 22% 30.08 in 10.0 mi NW 24.2 mph 29.9 mph N/A   Clear
1:53 PM 61.0 °F - 21.9 °F 22% 30.08 in 10.0 mi NNW 19.6 mph - N/A   Clear
2:53 PM 61.0 °F - 21.9 °F 22% 30.09 in 10.0 mi NNW 13.8 mph - N/A   Clear
3:53 PM 59.0 °F - 23.0 °F 25% 30.12 in 10.0 mi NNW 16.1 mph - N/A   Clear
4:53 PM 51.1 °F - 25.0 °F 36% 30.17 in 10.0 mi NNW 10.4 mph - N/A   Clear
5:53 PM 46.9 °F - 26.1 °F 44% 30.21 in 10.0 mi NNE 9.2 mph - N/A   Mostly Cloudy
6:53 PM 48.9 °F - 32.0 °F 52% 30.22 in 10.0 mi NNE 11.5 mph - N/A   Overcast
7:53 PM 48.9 °F - 33.1 °F 54% 30.24 in 10.0 mi North 17.3 mph - N/A   Overcast
8:53 PM 46.9 °F - 33.1 °F 59% 30.24 in 10.0 mi North 15.0 mph - N/A   Overcast
10:53 PM 46.9 °F - 34.0 °F 61% 30.22 in 10.0 mi NNW 12.7 mph - N/A   Overcast